Skip Page Navigation
NASA JPL Caltech
NASA Logo - Jet Propulsion Laboratory + View the NASA Portal
+ Near-Earth Object (NEO) Program
Search JPL
JPL Home Earth Solar System Stars & Galaxies Technology
JPL Solar System Dynamics
BODIES ORBITS EPHEMERIDES TOOLS PHYSICAL DATA DISCOVERY FAQ SITE MAP
JPL Small-Body Database Browser
Search: [ help ]  
(2005 UT64)
Classification: Apollo [NEO, PHA]          SPK-ID: 3297378
Ephemeris | Orbit Diagram | Orbital Elements | Physical Parameters | Close-Approach Data ]

[ hide orbit diagram ]
Orbit Diagram
Note: Make sure you have Java enabled on your browser to see the applet. This applet is provided as a 3D orbit visualization tool. The applet was implemented using 2-body methods, and hence should not be used for determining accurate long-term trajectories (over several years or decades) or planetary encounter circumstances. For accurate long-term ephemerides, please instead use our Horizons system.
Orbit Viewer

Additional Notes: the orbits shown in the applet are color coded. The planets are white lines, and the asteroid/comet is a blue line. The bright white line indicates the portion of the orbit that is above the ecliptic plane, and the darker portion is below the ecliptic plane. Likewise for the asteroid/comet orbit, the light blue indicates the portion above the ecliptic plane, and the dark blue the portion below the ecliptic plane.

Orbit Viewer applet originally written and kindly provided by Osamu Ajiki (AstroArts), and further modified by Ron Baalke (JPL).


Orbital Elements at Epoch 2456400.5 (2013-Apr-18.0) TDB
Reference: JPL 15 (heliocentric ecliptic J2000)
 Element Value Uncertainty (1-sigma)   Units 
e .5219332500213742 9.438e-08  
a 1.82167079432325 9.3176e-08 AU
q .8708802361730976 1.5905e-07 AU
i 10.50015688501481 2.6521e-05 deg
node 161.6549585158826 0.00021059 deg
peri 327.2862927384397 0.00019801 deg
M 338.5647568726526 7.9024e-05 deg
tp 2456453.972339224357
(2013-Jun-10.47233922)
0.00020115 JED
period 898.0556929727095
2.46
6.8901e-05
1.886e-07
d
yr
n .4008660073278327 3.0755e-08 deg/d
Q 2.772461352473402 1.4181e-07 AU
  Orbit Determination Parameters
   # obs. used (total)      58  
   data-arc span      2042 days (5.59 yr)  
   first obs. used      2005-10-31  
   last obs. used      2011-06-04  
   planetary ephem.      DE405  
   SB-pert. ephem.      SB405-CPV-2  
   condition code      0  
   fit RMS      .61178  
   data source      ORB  
   producer      Otto Matic  
   solution date      2011-Sep-14 20:05:23  

Additional Information
 Earth MOID = .0462917 AU 
 T_jup = 3.849 
[ show covariance matrix ]

Ephemeris | Orbit Diagram | Orbital Elements | Physical Parameters | Close-Approach Data ]

Physical Parameter Table
Parameter Symbol Value Units Sigma Reference Notes
absolute magnitude H 20.203 mag .39081 15 autocmod 2.5a

[ show close-approach data ]
Ephemeris | Orbit Diagram | Orbital Elements | Physical Parameters | Close-Approach Data ]
ABOUT SSD CREDITS/AWARDS PRIVACY/COPYRIGHT GLOSSARY LINKS
FirstGov 2013-Jun-20 00:59 UT
(server date/time)  
NASA Home Page
Site Manager:   Donald K. Yeomans
Webmaster  Alan B. Chamberlin